Overview Statistics Trail Chart Weather Telemetry Raw packets
 

This is the latest recevied weather packets stored in our database for station/object WP3OF-2. If no packets are shown the sender has not sent any weather packets the latest 10 day(s).

<< 67 68 69 70 71 72 73 >>
Time Temp. Humidity Pressure Rain* Wind** Luminosity Snow
1788107646 21.67° C 99% 1025.6 hPa 0 mm - 288 W/m² -
1788107318 22.22° C 99% 1025.6 hPa 0 mm - 263 W/m² -
1788107015 22.22° C 99% 1025.6 hPa 0 mm - 263 W/m² -
1788106714 22.22° C 99% 1025.6 hPa 1.78 mm - 260 W/m² -
1788106413 22.78° C 99% 1025.2 hPa 3.05 mm - 145 W/m² -
1788106109 22.78° C 99% 1025.6 hPa 0 mm - 247 W/m² -
1788105805 22.78° C 99% 1025.2 hPa 0 mm - 124 W/m² -
1788105500 22.78° C 99% 1025.6 hPa 0 mm - 230 W/m² -
1788105197 22.78° C 99% 1025.6 hPa 0 mm - 184 W/m² -
1788104897 22.78° C 99% 1025.2 hPa 0 mm - 422 W/m² -
1788104592 22.78° C 99% 1026 hPa 0 mm - 704 W/m² -
1788104289 22.78° C 99% 1025.6 hPa 0 mm - 666 W/m² -
1788103984 22.78° C 99% 1026 hPa 0 mm - 377 W/m² -
1788103683 22.78° C 99% 1026 hPa 0 mm - 353 W/m² -
1788103377 22.78° C 99% 1026 hPa 0 mm - 557 W/m² -
1788103077 22.22° C 99% 1026 hPa 1.78 mm - 197 W/m² -
1788102776 22.22° C 99% 1026 hPa 1.78 mm - 197 W/m² -
1788102472 22.22° C 99% 1026 hPa 1.78 mm - 447 W/m² -
1788102171 22.22° C 99% 1026 hPa 1.78 mm - 447 W/m² -
1788101866 21.67° C 99% 1026 hPa 0 mm - 244 W/m² -
1788101561 21.67° C 99% 1026 hPa 0 mm - 244 W/m² -
1788101256 21.67° C 99% 1026 hPa 0 mm - 244 W/m² -
1788100952 22.22° C 99% 1026.3 hPa 0 mm - 135 W/m² -
1788100648 22.22° C 99% 1026 hPa 0 mm - 462 W/m² -
1788100346 22.22° C 99% 1026 hPa 0 mm - 289 W/m² -

* Rain latest hour (hover to see other rain measurements)
** Current wind speed in m/s (hover to see current wind gust speed)